Weather History for KCZZ - September, 2012

Change the Weather History Date:

Thursday, September 13, 2012

  Actual Average Record
Temperature  
Mean Temperature 76 °F 70 °F  
Max Temperature 92 °F 91 °F 105 °F (1971)
Min Temperature 59 °F 49 °F 33 °F (2005)
Degree Days  
Heating Degree Days 0 1  
Month to date heating degree days 0 11  
Since 1 July heating degree days 9 25  
Cooling Degree Days 11 6  
Month to date cooling degree days 128 91  
Year to date cooling degree days 782 741  
Growing Degree Days 25 (Base 50)    
Moisture  
Dew Point 49 °F    
Average Humidity 54    
Maximum Humidity 90    
Minimum Humidity 18    
Precipitation  
Precipitation 0.00 in 0.01 in 0.33 in (1959)
Month to date precipitation 0.52 0.16  
Year to date precipitation 7.47 11.33  
Since 1 July precipitation 1.42 1.18  
Snow  
Snow 0.00 in - - ()
Month to date snowfall 0.0  
Year to date snowfall 0.0  
Since 1 July snowfall 0.0  
Snow Depth 0.00 in    
Sea Level Pressure  
Sea Level Pressure 29.95 in    
Wind  
Wind Speed 10 mph (NE)    
Max Wind Speed 26 mph    
Max Gust Speed 33 mph    
T = Trace of Precipitation, MM = Missing Value Source: NWS Daily Summary

Daily Weather History Graph

Daily Weather History Graph

Search for Another Location

Airport or City:

Trip Planner

Search our weather history database for the weather conditions in past years. The results will help you decide how hot, cold, wet, or windy it might be!

Date:

Astronomy

Sep. 13, 2012 Rise Set
Actual Time 6:28 AM PDT 6:53 PM PDT
Civil Twilight 6:03 AM PDT 7:18 PM PDT
Nautical Twilight 5:35 AM PDT 7:47 PM PDT
Astronomical Twilight 5:05 AM PDT 8:16 PM PDT
Moon 3:59 AM PDT (9/13) 5:15 PM PDT (9/13)
Length of Visible Light 13h 14m
Length of Day
12h 25m
Waning Crescent, 7% of the Moon is Illuminated
Sep 13
Waning Crescent
Sep 15
New
Sep 22
First Quarter
Sep 29
Full
Oct 8
Last Quarter

Hourly Weather History & Observations

Time (PDT) Temp. Dew Point Humidity Pressure Visibility Wind Dir Wind Speed Gust Speed Precip Events Conditions
12:52 AM 63.0 °F 59.0 °F 87% 29.95 in - NE 5.8 mph - N/A   Unknown
1:52 AM 62.1 °F 57.9 °F 86% 29.95 in - NE 5.8 mph - N/A   Unknown
2:52 AM 61.0 °F 57.0 °F 87% 29.94 in - NE 5.8 mph - N/A   Unknown
3:52 AM 60.1 °F 55.9 °F 86% 29.94 in - NNE 3.5 mph - N/A   Unknown
4:52 AM 60.1 °F 55.0 °F 83% 29.95 in - NE 5.8 mph - N/A   Unknown
5:52 AM 60.1 °F 55.0 °F 83% 29.96 in - NE 4.6 mph - N/A   Unknown
6:52 AM 59.0 °F 53.1 °F 81% 29.99 in - ENE 5.8 mph - N/A   Unknown
7:52 AM 66.9 °F 55.9 °F 68% 29.99 in - Calm Calm - N/A   Unknown
8:52 AM 78.1 °F 53.1 °F 42% 29.97 in - Calm Calm - N/A   Unknown
9:52 AM 86.0 °F 45.0 °F 24% 29.96 in - NE 17.3 mph 25.3 mph N/A   Unknown
10:52 AM 88.0 °F 45.0 °F 22% 29.97 in - NE 15.0 mph 25.3 mph N/A   Unknown
11:52 AM 89.1 °F 45.0 °F 22% 29.96 in - NE 15.0 mph 25.3 mph N/A   Unknown
12:52 PM 91.0 °F 41.0 °F 17% 29.94 in - ENE 19.6 mph 32.2 mph N/A   Unknown
1:52 PM 91.0 °F 42.1 °F 18% 29.92 in - ENE 18.4 mph 27.6 mph N/A   Unknown
2:52 PM 91.0 °F 43.0 °F 19% 29.90 in - NNE 15.0 mph 21.9 mph N/A   Unknown
3:52 PM 90.0 °F 43.0 °F 19% 29.89 in - NNE 21.9 mph 27.6 mph N/A   Unknown
4:52 PM 90.0 °F 42.1 °F 19% 29.90 in - NE 15.0 mph 24.2 mph N/A   Unknown
5:52 PM 88.0 °F 43.0 °F 21% 29.90 in - NNE 17.3 mph 25.3 mph N/A   Unknown
6:52 PM 84.0 °F 43.0 °F 24% 29.92 in - NE 12.7 mph - N/A   Unknown
7:52 PM 77.0 °F 45.0 °F 32% 29.94 in - North 4.6 mph - N/A   Unknown
8:52 PM 70.0 °F 46.9 °F 44% 29.96 in - NE 6.9 mph - N/A   Unknown
9:52 PM 66.0 °F 46.9 °F 50% 29.97 in - NE 3.5 mph - N/A   Unknown
10:52 PM 64.0 °F 46.9 °F 54% 29.97 in - NE 5.8 mph - N/A   Unknown
11:52 PM 62.1 °F 46.9 °F 58% 29.96 in - East 6.9 mph - N/A   Unknown